Location: Newark
(19.5361°N, 155.5761°W)
Time: 00:16:34
(UTC+00:00)

N. Korean satellite - Visible Passes

Search period start: 19 January 2020 00:00
Search period end: 29 January 2020 00:00
Orbit: 454 x 508 km, 97.2° (Epoch: 18 January)

Date Brightness Start Highest point End Pass type
(mag) Time Alt. Az. Time Alt. Az. Time Alt. Az.
19 Jan 6.9 16:17:15 10° N 16:20:39 43° WNW 16:24:05 10° SSW visible
20 Jan 6.9 15:51:40 10° NNE 15:55:13 68° E 15:58:50 10° S visible
21 Jan 8.9 15:26:44 10° NE 15:29:45 25° E 15:32:48 10° SSE visible
22 Jan 10.2 15:03:28 10° E 15:04:15 11° E 15:05:01 10° ESE visible
22 Jan 7.7 16:34:34 10° NNW 16:37:28 23° WNW 16:40:25 10° SW visible
23 Jan 10.2 04:33:53 10° WSW 04:35:01 11° W 04:36:10 10° WNW visible
23 Jan 6.5 16:08:32 10° N 16:12:04 60° WNW 16:15:41 10° SSW visible
24 Jan 7.6 15:43:08 10° NNE 15:46:38 48° E 15:50:10 10° S visible
25 Jan 9.4 15:18:29 10° NE 15:21:09 19° E 15:23:50 10° SE visible
26 Jan 7.3 16:25:40 10° NNW 16:28:54 31° WNW 16:32:11 10° SW visible
27 Jan 6.5 15:59:51 10° N 16:03:29 85° WNW 16:07:10 10° SSW visible
28 Jan 8.3 15:34:39 10° NNE 15:38:01 35° E 15:41:25 10° SSE visible
